Location: ?????
(55.6310°N, 38.9200°E)
Time: 12:12:49
(UTC+00:00)

Daily predictions for brighter satellites

Satellite Brightness Start Highest point End
(mag) Time Altitude Azimuth Time Altitude Azimuth Time Altitude Azimuth
Resurs 1-3 4.2 17:44:27 10° S 17:48:47 59° WSW 17:53:09 10° NNW
Cosmos 192 4.4 17:45:01 10° NNW 17:49:57 73° ENE 17:54:52 10° SE
COSMOS 2406 3.2 17:46:04 10° SSW 17:51:46 68° ESE 17:57:28 10° NE
Cosmos 1140 Rocket 3.9 17:47:14 10° S 17:52:06 41° ESE 17:57:02 10° NE
Cosmos 2219 Rocket 4.2 17:48:15 10° NNW 17:52:29 21° NNE 17:56:44 10° ENE
Cosmos 2369 4.3 17:47:36 10° NW 17:53:14 59° WSW 17:58:52 10° SSE
Cosmos 1805 Rocket 3.7 17:54:48 10° SSW 17:59:15 85° W 18:03:45 10° NNE
Cosmos 1900 4.4 17:55:38 10° SW 18:00:37 87° SE 18:05:44 10° NE
Cosmos 2082 Rocket 2.7 17:55:49 10° S 18:01:04 39° ESE 18:06:18 10° NE
Cosmos 2278 4.0 17:56:03 10° NW 18:01:46 71° WSW 18:07:26 10° SSE
CZ-2C R/B 3.0 17:57:44 10° NNE 18:02:54 70° WNW 18:08:04 10° SSW
SPOT 1/Viking Rocket 3.7 17:57:58 10° SSE 18:03:07 63° ENE 18:08:19 10° NNW
NOSS 2 (A) 4.4 18:02:44 10° NW 18:05:32 60° SW 18:07:52 11° SE
Cosmos 2322 Rocket 2.9 18:01:47 10° NNW 18:07:17 46° NE 18:12:47 10° ESE
MetOp-B 4.3 18:04:18 10° SSE 18:09:39 82° WSW 18:15:04 10° NNW
USA 32 4.4 18:07:55 10° SSE 18:12:55 48° E 18:17:58 10° NNE
Cosmos 2242 Rocket 4.1 18:08:38 10° N 18:12:57 46° ENE 18:17:09 10° SE
USA 267 3.7 18:10:16 10° ENE 18:16:21 39° SE 18:22:25 10° SSW
Okean 1-7 3.9 18:12:46 10° N 18:16:48 35° ENE 18:20:29 12° SE
NOSS 3-2 (A) 4.1 18:12:14 10° S 18:17:14 30° ESE 18:22:50 10° ENE
FALCON 9 DEB 4.4 18:15:12 10° SSW 18:17:56 21° SSE 18:20:39 10° E
Lacrosse 5 2.0 18:13:00 10° WNW 18:18:04 70° SSW 18:22:55 11° ESE
Cosmos 1633 Rocket 3.1 18:14:57 10° S 18:19:20 70° E 18:23:45 10° NNE
Cosmos 1862 4.5 18:16:05 10° SSW 18:20:01 47° WNW 18:23:59 10° N
Cosmos 2360 Rocket 3.2 18:14:43 10° NNW 18:20:01 37° NE 18:25:16 10° ESE
Cosmos 614 Rocket 4.1 18:15:01 10° SSW 18:20:13 84° WNW 18:25:30 10° NNE
IGS 5A 3.6 18:19:12 10° SSE 18:23:21 79° WSW 18:27:31 10° NNW
NOSS 3-2 (C) 4.5 18:20:14 10° SSE 18:24:42 23° ESE 18:29:36 10° ENE
Cosmos 1867 4.0 18:20:03 10° S 18:25:06 41° ESE 18:30:12 10° NE
OBJECT-B 3.5 18:23:17 10° SW 18:25:45 19° W 18:28:13 10° NW
COSMOS 2428 4.5 18:22:34 10° NNW 18:27:15 25° NNE 18:31:57 10° E
Cosmos 676 Rocket 4.2 18:23:29 10° S 18:28:38 51° ESE 18:33:48 10° NE
SWAS 4.4 18:24:20 10° SSW 18:28:38 73° ESE 18:32:59 10° NE
Cosmos 1980 Rocket 2.8 18:23:24 10° NW 18:28:55 53° WSW 18:34:23 10° S
SL-27 R/B 4.5 18:31:42 11° ESE 18:32:07 11° E 18:33:12 10° ENE
Cosmos 540 Rocket 4.1 18:28:47 10° NNW 18:33:47 46° NE 18:38:11 13° SE
Terra 2.2 18:30:03 13° SE 18:34:11 52° ENE 18:38:50 10° N
Cosmos 1602 4.4 18:31:16 12° SSE 18:34:36 38° E 18:38:17 10° NNE
Cosmos 1238 Rocket 2.4 18:35:59 13° SSE 18:38:27 46° E 18:41:20 10° NNE
Cosmos 1437 Rocket 2.9 18:35:08 10° N 18:38:55 56° ENE 18:41:48 16° SSE
Cosmos 841 Rocket 4.0 18:34:34 10° NNW 18:39:42 52° NE 18:44:01 14° SE
ERS-1 Rocket 3.0 18:36:10 11° SSE 18:40:56 84° ENE 18:45:59 10° NNW
Cosmos 921 Rocket 3.3 18:37:00 10° NNW 18:41:13 63° WSW 18:45:01 12° S
Meteor 1-19 Rocket 4.2 18:35:56 10° NNW 18:41:23 75° ENE 18:46:13 13° SSE
Okean 1 3.3 18:38:05 10° N 18:42:09 79° E 18:45:37 14° SSE
Cosmos 1697 Rocket 4.4 18:38:43 10° NW 18:43:19 26° WSW 18:47:53 10° SSW
Cosmos 1934 Rocket 4.2 18:37:09 10° SSW 18:43:32 84° WNW 18:49:58 10° N
Resurs 01 Rocket 3.4 18:39:55 10° SSW 18:43:47 29° W 18:47:41 10° NNW
Cosmos 1470 Rocket 3.5 18:39:35 10° S 18:43:59 71° E 18:48:22 10° NNE
Cosmos 468 Rocket 4.1 18:39:29 10° NNW 18:44:51 85° WSW 18:49:22 15° SSE
Cosmos 2237 Rocket 4.4 18:41:18 10° NNW 18:45:28 20° NNE 18:49:37 10° ENE
Cosmos 2333 Rocket 3.6 18:41:32 10° NNW 18:46:41 32° NE 18:51:49 10° E
deb Kosmos-1763 3.9 18:43:42 10° SSW 18:47:20 81° ESE 18:51:01 10° NNE
Cosmos 1833 Rocket 2.9 18:41:48 10° SW 18:47:26 77° NW 18:53:07 10° NNE
Cosmos 405 Rocket 2.8 18:47:37 13° S 18:50:49 54° E 18:54:30 10° NNE
Cosmos 1184 Rocket 2.9 18:48:59 10° SSW 18:52:16 77° WNW 18:55:36 10° NNE
USA 276 3.1 18:50:01 10° WSW 18:52:49 29° S 18:54:02 22° SE
GP-B 3.6 18:49:33 10° N 18:53:57 62° W 18:58:20 10° SSW
USA 234 3.7 18:49:43 15° SE 18:55:05 49° SW 19:01:24 10° WNW
Cosmos 1814 Rocket 4.3 18:52:07 10° NNW 18:57:16 57° NE 19:01:11 17° SE
H-2A R/B 3.9 18:53:32 10° N 18:57:37 62° WNW 19:01:41 10° SSW
SPOT 5 2.6 18:54:25 15° SSE 18:58:01 81° WSW 19:02:28 10° NNW
Cosmos 1570 Rocket 4.1 18:55:01 10° NNW 19:00:22 71° ENE 19:04:19 18° SE
Cosmos 1954 Rocket 4.0 18:55:11 10° SSW 19:00:31 82° ESE 19:05:53 10° NNE
SL-4 R/B 2.4 18:58:01 10° SW 19:01:31 34° SSE 19:04:01 15° ESE
X-37B 2.9 19:01:11 10° SSW 19:01:55 12° SSW 19:01:55 12° SSW
ATLAS 3B R/B 3.9 19:01:09 16° SE 19:03:08 18° ESE 19:07:21 10° ENE
Cosmos 2208 Rocket 4.2 18:59:42 10° NNW 19:05:00 67° ENE 19:08:46 19° SE
ERBS 2.5 19:04:04 10° W 19:07:23 68° N 19:10:41 10° E
Cosmos 1515 3.7 19:04:22 10° NNW 19:08:13 78° W 19:10:54 19° S
Meteor 2-4 Rocket 3.7 19:05:04 10° NNW 19:10:49 80° ENE 19:14:56 19° SSE
Cosmos 407 Rocket 4.5 19:08:32 10° SW 19:13:42 50° NW 19:18:51 10° NNE
USA 238 DEB 3.7 19:07:31 10° SSW 19:14:03 59° SE 19:20:54 10° NE
USA 238 3.7 19:07:39 10° SSW 19:14:10 59° SE 19:21:00 10° NE
SAR-Lupe-2 3.5 19:10:56 10° NNE 19:14:31 75° ESE 19:17:11 17° S
Cosmos 44 3.4 19:10:09 10° NW 19:14:58 74° SW 19:18:19 21° SE
Cosmos 1536 4.5 19:14:18 17° ESE 19:15:32 19° E 19:18:23 10° NE
Cosmos 44 Rocket 4.4 19:11:51 10° NW 19:16:31 41° NNE 19:21:18 10° E
Iridium 4 Rocket 3.4 19:15:34 22° SSE 19:17:58 46° E 19:21:59 10° NNE
CARTOSAT-1 4.4 19:16:32 13° S 19:20:10 46° W 19:24:21 10° NNW
Cosmos 1933 Rocket 3.8 19:20:40 10° SSW 19:25:04 70° WNW 19:29:32 10° N
Cosmos 1763 Rocket 4.2 19:22:37 10° NW 19:27:46 49° WSW 19:31:33 18° S
Geosat 4.0 19:25:28 21° SE 19:28:50 77° NE 19:33:53 10° NNW
SL-16 R/B 2.6 19:24:58 10° NW 19:30:32 56° WSW 19:34:19 20° S
Cosmos 2100 Rocket 4.0 19:27:57 17° S 19:32:41 69° E 19:38:49 10° NNE
Cosmos 1605 Rocket 4.5 19:28:07 10° SSW 19:34:08 59° WNW 19:40:11 10° N
Cosmos 2322 4.1 19:29:36 10° NNW 19:35:14 58° NE 19:39:13 19° ESE
CENTAUR R/B 2.7 19:29:41 10° SSW 19:35:36 53° SE 19:42:38 10° NE
Cosmos 1869 Rocket 3.6 19:32:52 23° S 19:35:36 69° E 19:40:04 10° NNE
Cosmos 1242 Rocket 3.4 19:33:25 10° N 19:36:50 38° ENE 19:38:16 26° ESE
Cosmos 2219 Rocket 2.9 19:32:21 10° NNW 19:37:52 47° NE 19:42:13 16° ESE
Lacrosse 4 Rocket 3.5 19:41:19 13° E 19:41:19 13° E 19:42:45 10° E
Cosmos 2082 Rocket 3.0 19:39:28 10° SW 19:45:03 54° NW 19:50:39 10° NNE
Cosmos 2173 Rocket 3.9 19:40:28 19° S 19:45:06 77° E 19:51:15 10° NNE
Spot 4 4.1 19:42:58 26° SE 19:45:37 62° ENE 19:50:25 10° N
Cosmos 2333 4.4 19:44:00 10° NNW 19:49:49 70° NE 19:53:33 23° SE
Cosmos 1674 Rocket 4.0 19:45:38 10° N 19:49:51 47° ENE 19:51:48 28° SE
GENESIS II 4.5 19:46:01 10° NW 19:50:03 67° NE 19:52:11 26° ESE
Okean 3 3.5 19:46:32 10° NNW 19:50:50 75° W 19:53:02 28° S
Cosmos 2237 4.3 19:45:15 10° NW 19:50:58 72° WSW 19:54:15 26° SSE
Cosmos 2322 Rocket 2.8 19:45:58 10° NW 19:51:27 49° WSW 19:54:49 22° S
Cosmos 1725 Rocket 4.3 19:48:43 24° SSE 19:52:27 55° E 19:58:37 10° NNE
Okean 1-7 4.3 19:50:26 10° NNW 19:54:21 34° W 19:57:20 15° SSW
FALCON 9 DEB 3.3 19:51:06 10° WSW 19:54:28 48° S 19:55:31 35° ESE
Cosmos 1356 3.9 19:54:19 37° SE 19:54:55 41° E 19:58:12 10° NNE
ALOS 2 3.3 19:54:50 25° ESE 19:56:59 43° ENE 20:01:09 10° N
SL-16 R/B 4.4 19:52:49 10° NNW 19:57:15 22° NNE 20:01:41 10° ENE
EO 1 Del DPAF 4.3 19:55:35 10° NE 19:58:54 28° E 19:59:30 27° ESE
USA 267 3.2 19:53:23 10° ENE 19:59:58 79° SSE 20:06:32 10° WSW
Lacrosse 5 3.2 19:56:20 10° W 20:00:26 25° SW 20:02:05 21° SSW
Cosmos 2016 Rocket 4.0 19:59:46 23° S 20:03:54 75° E 20:10:18 10° NNE
Cosmos 2360 Rocket 2.3 19:58:46 10° NW 20:04:25 65° WSW 20:07:25 28° S
Cosmos 1459 Rocket 4.1 19:59:29 18° SSW 20:04:25 83° W 20:10:51 10° N
SL-27 R/B 2.3 20:05:13 31° SW 20:06:40 79° WNW 20:10:00 10° NNE
Cosmos 1850 Rocket 4.2 20:01:23 10° SSW 20:06:42 76° WNW 20:12:00 10° NNE
NOSS 3-2 (A) 3.5 20:01:24 10° SW 20:07:23 85° NW 20:14:24 10° NE
Cosmos 1867 4.1 20:03:10 10° WSW 20:08:35 62° NW 20:14:02 10° NE
Thor Agena Rocket 3.8 20:05:36 10° NNE 20:10:32 49° E 20:12:40 31° SSE
Cosmos 1733 Rocket 3.3 20:09:09 34° SSE 20:10:44 55° E 20:15:05 10° NNE
Terra 3.3 20:08:56 14° SSW 20:12:12 29° W 20:16:21 10° NNW
COSMOS 2428 3.0 20:06:52 10° NNW 20:12:36 66° NE 20:16:13 23° SE
Cosmos 2221 Rocket 4.0 20:08:58 10° NNW 20:13:22 58° W 20:15:30 29° SSW
Cosmos 2061 Rocket 3.9 20:09:55 24° S 20:13:56 84° E 20:20:11 10° NNE
NOSS 3-2 (C) 3.4 20:08:38 10° SW 20:14:33 80° SE 20:21:29 10° NE
Cosmos 540 Rocket 4.4 20:10:35 10° NW 20:15:21 39° WSW 20:17:59 23° SSW
Cosmos 1864 Rocket 4.5 20:13:40 26° S 20:17:25 78° E 20:23:43 10° NNE
Cosmos 1500 4.0 20:16:15 21° SW 20:18:24 47° WNW 20:22:04 10° N
Meteor 1-11 Rocket 3.7 20:16:06 26° S 20:19:24 80° ESE 20:25:13 10° NNE
Cosmos 1802 Rocket 4.2 20:23:40 19° SSW 20:28:25 72° WNW 20:34:46 10° N
Cosmos 1666 2.7 20:28:29 38° SSW 20:29:47 73° WNW 20:33:34 10° N
Cosmos 2237 Rocket 3.1 20:25:32 10° NNW 20:31:00 45° NE 20:35:33 14° ESE
Cosmos 2333 Rocket 2.2 20:25:49 10° NW 20:31:38 86° WSW 20:34:36 30° SSE
Cosmos 1743 3.2 20:35:16 40° SE 20:36:02 46° E 20:39:48 10° NNE
Cosmos 2233 Rocket 4.0 20:33:38 29° S 20:37:01 72° E 20:43:20 10° NNE
Cosmos 1271 Rocket 2.6 20:34:45 10° NNW 20:38:33 87° E 20:39:29 50° SSE
Cosmos 2084 Rocket 3.3 20:36:31 23° SW 20:39:08 79° SE 20:43:30 10° NE
Cosmos 1908 Rocket 4.1 20:38:45 35° SE 20:39:56 44° E 20:44:06 10° NNE
SL-4 R/B 2.6 20:37:11 10° WSW 20:39:35 32° SW 20:39:35 32° SW
COSMOS 2487 2.4 20:42:46 55° SE 20:42:58 57° ESE 20:46:22 10° NNE
ERBS 2.1 20:40:27 10° WNW 20:43:47 87° SSW 20:44:21 58° ESE
Cosmos 1378 Rocket 3.6 20:40:07 10° NNW 20:44:36 72° W 20:46:08 39° S
MOS 1-B Rocket 3.9 20:40:05 10° NNE 20:45:51 74° WNW 20:49:29 23° SSW
Cosmos 2344 4.3 20:38:53 10° NW 20:47:32 79° NNE 20:59:27 10° ESE
Okean 2 3.5 20:46:17 10° N 20:50:23 67° ENE 20:51:36 42° SE
Cosmos 1536 3.3 20:50:01 32° SW 20:51:35 56° WNW 20:55:32 10° N
ATLAS 3B R/B 2.6 20:48:21 23° SSW 20:52:36 64° SE 20:59:13 10° NE
NOSS 5 (C) 4.2 20:55:06 65° S 20:55:20 68° SE 20:58:25 10° NE
Cosmos 1378 3.5 20:51:42 10° NNW 20:55:22 54° W 20:56:10 44° SW
Helios 1A 3.2 20:55:08 38° SE 20:56:35 64° ENE 21:00:48 10° N
Cosmos 44 Rocket 3.3 20:53:26 10° NW 20:58:23 68° SW 21:00:16 37° SSE
Cosmos 1975 Rocket 3.3 20:56:04 10° N 21:00:34 66° ENE 21:02:08 38° SE
SL-24 DEB 4.4 20:56:08 10° N 21:00:55 65° E 21:02:36 39° SSE
Cosmos 1486 Rocket 4.0 21:00:31 36° S 21:02:32 65° ESE 21:07:42 10° NNE
USA 238 DEB 4.2 20:58:26 10° WSW 21:05:08 61° NNW 21:12:11 10° NE
USA 238 4.2 20:58:33 10° WSW 21:05:14 61° NNW 21:12:18 10° NE
Cosmos 1242 Rocket 4.2 21:08:38 10° NW 21:11:32 23° W 21:12:17 22° WSW
SL-16 R/B 4.4 21:11:24 10° WNW 21:13:26 12° W 21:15:28 10° WSW
Cosmos 2227 Rocket 4.1 21:11:44 14° ESE 21:13:31 16° E 21:16:45 10° ENE
Cosmos 1707 3.6 21:10:24 10° N 21:14:10 42° ENE 21:15:25 32° ESE
Nimbus 7 Rocket 4.3 21:10:25 10° NNE 21:16:20 89° WNW 21:19:23 30° SSW
Lacrosse 4 Rocket 1.3 21:17:36 47° SSW 21:18:43 73° SE 21:22:55 10° NE
Cosmos 1842 3.2 21:15:55 10° NNW 21:19:53 74° W 21:20:42 52° SSW
Cosmos 1975 2.9 21:19:12 49° SSE 21:20:04 66° E 21:24:06 10° NNE
Cosmos 2219 Rocket 2.6 21:16:27 10° NW 21:21:54 47° WSW 21:23:54 33° SSW
YAOGAN 11 4.1 21:21:31 41° SSE 21:23:07 89° WSW 21:27:45 10° NNW
Cosmos 1833 4.3 21:21:18 24° SW 21:24:48 78° NW 21:30:32 10° NNE
SL-16 R/B 3.9 21:19:38 10° ESE 21:25:09 34° NE 21:30:39 10° N
Meteor 1-21 4.2 21:19:32 10° NNW 21:25:24 82° WSW 21:28:00 35° S
Sich 1 Rocket 4.1 21:24:48 36° SE 21:26:01 46° E 21:30:15 10° NNE
CENTAUR R/B 3.2 21:19:49 10° WSW 21:26:15 65° NNW 21:33:57 10° NE
CZ-2D R/B 4.4 21:24:21 10° NE 21:26:55 13° E 21:29:29 10° ESE
Cosmos 773 Rocket 3.9 21:23:22 10° NNW 21:28:35 89° WSW 21:30:47 35° SSE
Cosmos 1538 Rocket 4.2 21:24:23 10° NNW 21:29:33 68° ENE 21:32:26 26° SE
Cosmos 1544 3.0 21:29:27 58° SSW 21:30:05 81° WNW 21:33:48 10° N
NOSS 0 Rocket 4.0 21:24:50 10° NW 21:31:03 68° WSW 21:34:02 32° SSE
DNEPR-1 R/B 4.2 21:25:10 10° NW 21:31:35 85° NE 21:35:12 21° SE
EO 1 Del DPAF 4.4 21:29:28 10° N 21:32:58 36° WNW 21:34:29 25° WSW
ALOS 2 3.8 21:32:14 27° SW 21:33:27 31° W 21:37:23 10° NNW
Cosmos 1025 Rocket 3.3 21:31:37 10° N 21:35:51 58° ENE 21:37:24 36° SE
PSLV R/B 4.2 21:35:39 10° NNE 21:40:13 50° E 21:41:46 35° SSE
Cosmos 968 Rocket 3.5 21:38:43 32° SW 21:41:06 80° WNW 21:46:18 10° NNE
Landsat 4 4.1 21:38:54 10° NNE 21:42:37 49° E 21:43:17 43° SE
SL-16 R/B 2.8 21:37:01 10° NNW 21:42:39 55° NE 21:48:06 11° SE
USA 267 3.3 21:36:31 10° E 21:43:05 80° N 21:49:39 10° W
Cosmos 1437 2.6 21:42:31 10° N 21:45:31 66° ENE 21:45:34 66° E
Cosmos 2360 Rocket 4.1 21:44:26 10° WNW 21:47:21 14° W 21:49:10 13° WSW
Helios 1B rocket 3.1 21:49:46 10° NNE 21:53:42 43° E 21:54:47 35° SE
COSMOS 2428 3.7 21:51:34 10° NW 21:56:34 32° WSW 21:58:12 27° SW
Cosmos 1626 4.3 21:55:05 10° NNE 21:57:58 21° ENE 22:00:37 11° ESE
Cosmos 1354 Rocket 4.0 21:57:35 34° SSW 21:59:59 89° WNW 22:05:22 10° NNE
Timation 2 Rocket 4.2 21:57:48 32° S 22:00:26 55° ESE 22:06:18 10° NE
Cosmos 1536 Rocket 3.5 21:58:50 10° N 22:03:12 83° ENE 22:04:44 40° SSE
MINOTAUR 4 R/B 4.2 22:03:29 51° SW 22:03:53 55° WSW 22:07:24 10° NNW
NOSS 3-2 (C) 4.5 21:59:54 10° W 22:06:00 51° NNW 22:13:06 10° ENE
Cosmos 1980 3.9 22:00:38 10° NW 22:06:10 54° WSW 22:08:24 34° S
Meteor 2-9 Rocket 4.3 22:03:34 32° SSW 22:06:17 71° WNW 22:12:04 10° NNE
Cosmos 2297 Rocket 3.0 22:04:45 28° SSE 22:06:59 39° ESE 22:12:12 10° NE
Cosmos 2026 Rocket 4.1 22:01:00 10° N 22:07:06 71° ENE 22:10:55 24° SSE
Cosmos 1782 Rocket 4.0 22:08:19 33° SW 22:09:53 50° WNW 22:14:08 10° N
KORONAS-FOTON 4.4 22:06:32 10° N 22:10:15 51° ENE 22:11:43 32° SE
Cosmos 1680 Rocket 4.0 22:05:55 10° NNW 22:11:07 57° NE 22:15:42 13° SE
Cosmos 2219 3.6 22:11:09 31° SSE 22:13:27 48° ESE 22:18:51 10° NE
Cosmos 2333 Rocket 3.7 22:11:01 10° NW 22:15:10 21° W 22:16:34 19° WSW
Cosmos 2237 Rocket 2.5 22:09:44 10° NW 22:15:11 50° WSW 22:17:20 33° SSW
Resurs 1-4 Rocket 3.6 22:10:45 10° NNE 22:15:15 27° E 22:18:22 16° SE
Cosmos 1627 Rocket 4.5 22:11:33 10° N 22:17:44 85° ENE 22:21:26 26° SSE
Cosmos 1607 3.9 22:11:53 10° NW 22:18:20 77° SW 22:24:10 13° SE
Meteor 2-5 Rocket 4.2 22:13:40 10° N 22:19:17 58° ENE 22:23:23 18° SE
Cosmos 158 Rocket 4.4 22:14:45 10° NNW 22:20:06 66° ENE 22:24:43 14° SE
UNK 4.4 22:18:09 18° SE 22:21:23 52° ENE 22:25:56 10° N
Cosmos 1634 Rocket 4.3 22:18:39 26° SSE 22:22:13 60° E 22:28:19 10° NNE
In-Cosmos 22 4.2 22:17:11 10° NNW 22:22:46 68° W 22:25:18 32° S
Cosmos 1777 Rocket 4.1 22:22:25 33° S 22:24:42 66° ESE 22:29:58 10° NNE
Cosmos 1464 Rocket 4.4 22:22:23 26° SW 22:25:50 56° WNW 22:31:56 10° N
Meteor 1-29 3.2 22:26:00 10° NNE 22:29:26 59° ESE 22:30:13 45° SSE
Spot 1 3.9 22:32:21 33° SSE 22:34:08 87° ENE 22:38:14 10° NNW
Iridium 51 4.4 22:34:44 10° N 22:39:01 67° W 22:40:19 40° SSW
Cosmos 1766 4.2 22:38:17 26° SE 22:39:55 39° E 22:43:33 10° NNE
Cosmos 923 Rocket 4.0 22:37:23 10° NNW 22:42:45 76° WSW 22:46:03 24° SSE
ATLAS 3B R/B 3.2 22:37:01 10° WSW 22:43:31 56° NNW 22:50:10 10° NE
Cosmos 1428 Rocket 4.5 22:37:46 10° NNW 22:44:02 75° W 22:47:51 25° S
Cosmos 1943 4.3 22:40:15 10° NNW 22:45:41 45° NE 22:51:05 10° ESE
Cosmos 1300 Rocket 3.9 22:47:00 32° SW 22:48:42 53° WNW 22:52:58 10° N
Cosmos 1707 4.2 22:46:39 10° NW 22:49:50 24° W 22:50:34 23° WSW
Okean 2 Rocket 3.6 22:48:56 30° SW 22:50:50 49° WNW 22:55:15 10° N
Cosmos 1674 2.7 22:47:48 10° NNW 22:51:29 58° W 22:52:30 41° SSW
BREEZE-M TANK 4.4 22:53:46 16° SE 22:53:46 16° SE 22:55:22 10° SE
Cosmos 1092 Rocket 4.4 22:48:18 10° NNW 22:54:17 49° W 22:57:33 26° SSW
ADEOS II 3.8 22:50:42 10° NE 22:55:03 25° E 22:59:22 10° SSE
Cosmos 2098 Rocket 4.2 22:50:53 10° N 22:55:37 53° ENE 23:01:32 10° SSE
Cosmos 2227 Rocket 2.3 22:53:32 28° SSW 22:56:35 70° ESE 23:02:15 10° NE
Lacrosse 4 Rocket 3.1 22:54:04 10° W 22:57:47 29° NNW 23:01:27 10° NNE
Cosmos 2266 Rocket 4.5 22:51:46 10° N 22:58:06 60° ENE 23:04:18 10° SSE
Cosmos 1461 4.4 22:56:59 21° SSE 22:58:42 27° ESE 23:02:35 10° ENE
Okean 1 Rocket 3.0 22:58:10 32° S 23:00:11 83° E 23:04:35 10° NNE
GEOS 3 Rocket 4.3 22:55:53 10° NE 23:01:04 44° SE 23:03:52 25° S
Okean 1-7 Rocket 4.1 22:58:44 10° N 23:03:07 58° ENE 23:06:44 15° SSE
Cosmos 1805 3.2 23:05:28 34° S 23:07:06 85° ESE 23:11:02 10° NNE
CZ-2D R/B 2.5 23:02:37 10° NNE 23:08:06 63° ESE 23:11:44 21° S
Cosmos 1733 3.4 23:06:22 29° S 23:08:09 64° E 23:11:59 10° NNE
SL-16 R/B 2.6 23:03:54 20° S 23:08:25 69° WSW 23:14:41 10° NNW
CZ-4C R/B 3.0 23:11:20 34° S 23:12:41 65° WSW 23:16:19 10° NNW
SJ 16-02 1.7 23:10:44 26° S 23:13:01 56° ESE 23:17:21 10° NNE
SL-14 R/B 3.1 23:11:05 10° NNW 23:15:02 82° W 23:17:08 26° S
NPP 3.9 23:11:21 10° NNE 23:16:44 63° ESE 23:20:29 20° S
CENTAUR R/B 3.9 23:11:25 10° WNW 23:18:08 47° N 23:25:58 10° ENE
Cosmos 1655 Rocket 4.0 23:12:15 10° NNW 23:18:35 85° WSW 23:23:50 15° S
Cosmos 2082 3.9 23:16:28 23° SSW 23:19:55 63° ESE 23:25:30 10° NE
Uosat 12 SS-18 rocket 4.1 23:17:56 25° SW 23:20:42 88° SSE 23:25:05 10° NE
MOZ.5/SAFIR/RUBIN 5/SL-8 4.4 23:20:55 26° SSW 23:23:03 40° W 23:27:33 10° NNW
Meteor 1-15 Rocket 4.3 23:20:37 24° SSW 23:24:06 67° WNW 23:29:41 10° N
NOSS 3-1 (C) 4.3 23:21:55 18° S 23:25:29 37° ESE 23:31:22 10° ENE
USA 267 3.2 23:19:35 10° ESE 23:26:09 85° SSW 23:32:45 10° WNW
Cosmos 1626 Rocket 4.4 23:22:22 10° N 23:26:36 48° ENE 23:30:47 10° SSE
SL-16 R/B 2.7 23:21:24 10° NW 23:26:40 39° WSW 23:29:54 21° SSW
Helios 1B rocket 3.8 23:25:18 10° N 23:28:51 29° WNW 23:31:05 18° WSW
Cosmos 1455 Rocket 3.6 23:27:57 18° S 23:31:09 57° E 23:35:32 10° NNE
Cosmos 1626 2.4 23:29:53 10° NNW 23:33:29 48° W 23:35:08 27° SSW
Cosmos 2112 Rocket 4.3 23:31:40 10° NW 23:36:39 45° WSW 23:40:11 18° S
Cosmos 1892 Rocket 3.7 23:32:19 10° NNW 23:36:45 59° W 23:39:36 21° S
Cosmos 1937 Rocket 4.2 23:37:06 15° S 23:41:12 48° ESE 23:46:19 10° NE
Meteor 1-24 Rocket 3.9 23:37:35 10° NNW 23:42:51 49° W 23:46:34 18° SSW
Cosmos 2263 Rocket 3.6 23:38:11 10° SSE 23:42:57 30° ESE 23:47:45 10° NE
CBERS-1 4.4 23:40:07 10° NNE 23:45:13 61° ESE 23:49:37 14° S
Cosmos 990 Rocket 4.1 23:46:43 19° SSW 23:50:31 76° ESE 23:55:42 10° NNE
ARIANE 5 R/B 3.8 23:45:48 10° NNE 23:50:40 37° E 23:55:30 10° SSE
Cosmos 1758 3.7 23:47:34 15° S 23:50:48 60° E 23:54:45 10° NNE
Cosmos 2297 Rocket 2.7 23:46:33 16° WSW 23:50:56 55° NW 23:56:31 10° NNE
Cosmos 1898 Rocket 3.6 23:47:46 18° SSW 23:51:40 72° ESE 23:56:53 10° NNE
Cosmos 1680 Rocket 4.3 23:48:25 10° NW 23:52:59 31° WSW 23:55:57 18° SSW
Cosmos 2237 Rocket 4.2 23:57:18 10° W 23:57:56 10° W 23:58:33 10° W
